BEIJING 1 (28890 NORAD) Tracking and Keplerian Element Data

This shows tracking and keplerian element data for the satellite.

Feedback or suggestion? Click here.




ElementValue
Catalog28890
NameBEIJING 1
Epoch Orbit2781
Epoch Day35.20623573
Epoch Year2025
RAAN162.8572
Inclination98.2229
Eccentricity0.0015559
Argument of Perigee43.7376
Mean Anonmoly316.5055
Mean Motion14.62943897
Decay Rate9.56E-06
L11 28890U 05043A 25035.20623573 .00000956 00000+0 19586-3 0 9993
L22 28890 98.2229 162.8572 0015559 43.7376 316.5055 14.62943897 27813



Live tracking and technical data element details for BEIJING 1 (NORAD 28890). BEIJING 1 can be tracked NOW for your location showing map with azimuth and elevation plus other details from your city location.







IsCatalogInMostPopularTable: catalog: 28890, numindb: 307
Update: records affected: 1



GetName: 28890 BEIJING 1

Hit Count: updated at: Fri, 16 May 2025 10:11:50 GMT